AFL245 UUEE-LZIB

Flight info

Callsign AFL245
Flight time 2h 16m
Altitude 40000
Route LIDRI3H LIDRI T781 REPNU N858 VEPIS T526 RUHAL M863 MNS L999 PINUG T52 RAVOK L856 TOSPO/N0477F400 L856 BABKO/N0429F240 M866 NIDOK/N0373F140 R23 NIT NIT2M
Aircraft A359/H-SDE2E3GHIJ3J4J5LM1ORWXY/LB1D1

Departure

Time 2026-05-05 12:24
Airport Sheremetyevo International Airport (UUEE)

Arrival

Time 2026-05-05 14:40
Airport M. R. Štefánik Airport (LZIB)
Time Latitude Longitude Altitude Speed Heading
2026-05-05 10:21 55.97739 37.41298 648 ft 0 kts 299°
2026-05-05 10:30 55.97739 37.41299 645 ft 0 kts 299°
2026-05-05 10:34 55.97738 37.41299 645 ft 0 kts 299°
2026-05-05 10:41 55.97738 37.41300 645 ft 0 kts 299°
2026-05-05 10:53 55.97738 37.41301 645 ft 0 kts 299°
2026-05-05 11:04 55.97738 37.41302 645 ft 0 kts 299°
2026-05-05 11:12 55.97737 37.41302 645 ft 0 kts 299°
2026-05-05 11:16 55.97737 37.41303 645 ft 0 kts 299°
2026-05-05 11:28 55.97737 37.41304 645 ft 0 kts 299°
2026-05-05 11:40 55.97737 37.41305 645 ft 0 kts 299°
2026-05-05 11:51 55.97736 37.41305 645 ft 0 kts 299°
2026-05-05 11:54 55.97736 37.41306 645 ft 0 kts 299°
2026-05-05 12:04 55.97732 37.41321 646 ft 4 kts 300°
2026-05-05 12:04 55.97718 37.41362 648 ft 4 kts 302°
2026-05-05 12:05 55.97705 37.41398 649 ft 2 kts 301°
2026-05-05 12:05 55.97696 37.41433 648 ft 4 kts 274°
2026-05-05 12:05 55.97695 37.41458 649 ft 4 kts 224°
2026-05-05 12:05 55.97706 37.41469 650 ft 4 kts 174°
2026-05-05 12:06 55.97731 37.41459 647 ft 4 kts 164°
2026-05-05 12:06 55.97757 37.41446 646 ft 4 kts 164°
2026-05-05 12:06 55.97783 37.41433 647 ft 4 kts 164°
2026-05-05 12:06 55.97805 37.41422 648 ft 1 kts 164°
2026-05-05 12:13 55.97797 37.41426 647 ft 0 kts 164°
2026-05-05 12:13 55.97774 37.41437 645 ft 7 kts 164°
2026-05-05 12:13 55.97706 37.41470 645 ft 9 kts 165°
2026-05-05 12:13 55.97684 37.41506 645 ft 3 kts 109°
2026-05-05 12:14 55.97679 37.41561 645 ft 2 kts 118°
2026-05-05 12:14 55.97648 37.41586 645 ft 11 kts 159°
2026-05-05 12:14 55.97611 37.41652 645 ft 6 kts 103°
2026-05-05 12:14 55.97619 37.41741 645 ft 8 kts 76°
2026-05-05 12:15 55.97635 37.41858 645 ft 11 kts 76°
2026-05-05 12:15 55.97656 37.42005 645 ft 13 kts 76°
2026-05-05 12:15 55.97673 37.42118 645 ft 15 kts 75°
2026-05-05 12:15 55.97713 37.42379 645 ft 18 kts 74°
2026-05-05 12:16 55.97736 37.42525 645 ft 19 kts 75°
2026-05-05 12:16 55.97757 37.42667 646 ft 0 kts 75°
2026-05-05 12:16 55.97763 37.42706 649 ft 9 kts 75°
2026-05-05 12:16 55.97781 37.42827 650 ft 11 kts 75°
2026-05-05 12:17 55.97803 37.42978 645 ft 14 kts 75°
2026-05-05 12:17 55.97829 37.43157 645 ft 16 kts 75°
2026-05-05 12:17 55.97860 37.43360 645 ft 18 kts 75°
2026-05-05 12:17 55.97894 37.43588 645 ft 20 kts 75°
2026-05-05 12:18 55.97932 37.43838 645 ft 22 kts 74°
2026-05-05 12:18 55.97939 37.43882 645 ft 0 kts 74°
2026-05-05 12:18 55.97942 37.43907 645 ft 6 kts 74°
2026-05-05 12:19 55.97950 37.43987 645 ft 6 kts 100°
2026-05-05 12:19 55.97925 37.44026 645 ft 5 kts 156°
2026-05-05 12:19 55.97918 37.44031 645 ft 0 kts 157°
2026-05-05 12:21 55.97889 37.44049 645 ft 7 kts 163°
2026-05-05 12:21 55.97833 37.44077 646 ft 9 kts 164°
2026-05-05 12:22 55.97798 37.44068 646 ft 3 kts 215°
2026-05-05 12:22 55.97786 37.44026 646 ft 0 kts 249°
2026-05-05 12:23 55.97740 37.43744 647 ft 59 kts 255°
2026-05-05 12:23 55.97575 37.42642 647 ft 123 kts 255°
2026-05-05 12:24 55.97302 37.40849 743 ft 168 kts 255°
2026-05-05 12:24 55.97015 37.39005 1794 ft 143 kts 255°
2026-05-05 12:24 55.96781 37.37439 2741 ft 125 kts 254°
2026-05-05 12:24 55.96543 37.35780 2968 ft 149 kts 256°
2026-05-05 12:25 55.96328 37.33933 3405 ft 154 kts 258°
2026-05-05 12:25 55.96124 37.32047 3891 ft 160 kts 259°
2026-05-05 12:25 55.95906 37.29931 4059 ft 185 kts 258°
2026-05-05 12:25 55.95594 37.27555 4322 ft 208 kts 254°
2026-05-05 12:26 55.95152 37.24988 4680 ft 224 kts 251°
2026-05-05 12:26 55.94621 37.22274 5089 ft 239 kts 250°
2026-05-05 12:26 55.94053 37.19452 5728 ft 243 kts 251°
2026-05-05 12:26 55.93538 37.16571 6408 ft 246 kts 254°
2026-05-05 12:27 55.93049 37.13622 6835 ft 249 kts 255°
2026-05-05 12:27 55.92571 37.10655 6973 ft 249 kts 255°
2026-05-05 12:27 55.92096 37.07680 6972 ft 250 kts 255°
2026-05-05 12:27 55.91621 37.04698 6974 ft 249 kts 255°
2026-05-05 12:28 55.91166 37.01715 6975 ft 249 kts 257°
2026-05-05 12:28 55.90986 36.98655 6985 ft 249 kts 269°
2026-05-05 12:28 55.91010 36.95551 7203 ft 252 kts 270°
2026-05-05 12:28 55.91051 36.92424 7832 ft 252 kts 270°
2026-05-05 12:29 55.91087 36.89354 8614 ft 251 kts 270°
2026-05-05 12:29 55.91119 36.86199 9353 ft 252 kts 270°
2026-05-05 12:29 55.91149 36.83096 9826 ft 255 kts 270°
2026-05-05 12:29 55.91177 36.79925 9974 ft 256 kts 270°
2026-05-05 12:30 55.91184 36.76751 9986 ft 256 kts 267°
2026-05-05 12:30 55.90923 36.73607 10037 ft 257 kts 258°
2026-05-05 12:30 55.90489 36.70459 10211 ft 268 kts 257°
2026-05-05 12:30 55.90016 36.67140 10462 ft 284 kts 256°
2026-05-05 12:31 55.89519 36.63639 10744 ft 298 kts 256°
2026-05-05 12:31 55.89002 36.59978 11054 ft 310 kts 256°
2026-05-05 12:31 55.88471 36.56219 11522 ft 316 kts 256°
2026-05-05 12:31 55.87931 36.52403 12042 ft 319 kts 256°
2026-05-05 12:32 55.87385 36.48550 12575 ft 323 kts 256°
2026-05-05 12:32 55.86833 36.44658 13099 ft 326 kts 256°
2026-05-05 12:32 55.86322 36.40708 13648 ft 329 kts 258°
2026-05-05 12:32 55.85847 36.36706 14104 ft 332 kts 258°
2026-05-05 12:33 55.85365 36.32674 14586 ft 335 kts 258°
2026-05-05 12:33 55.84872 36.28610 15078 ft 337 kts 258°
2026-05-05 12:33 55.84372 36.24525 15575 ft 339 kts 258°
2026-05-05 12:33 55.83867 36.20420 16063 ft 341 kts 257°
2026-05-05 12:34 55.83353 36.16273 16540 ft 344 kts 257°
2026-05-05 12:34 55.82834 36.12101 17038 ft 346 kts 257°
2026-05-05 12:34 55.82311 36.07905 17527 ft 349 kts 257°
2026-05-05 12:34 55.81783 36.03685 17988 ft 352 kts 257°
2026-05-05 12:35 55.81247 35.99414 18420 ft 355 kts 257°
2026-05-05 12:35 55.80706 35.95125 18845 ft 356 kts 257°
2026-05-05 12:35 55.80154 35.90822 19260 ft 358 kts 257°
2026-05-05 12:35 55.79598 35.86500 19685 ft 360 kts 257°
2026-05-05 12:36 55.79037 35.82147 20099 ft 362 kts 257°
2026-05-05 12:36 55.78474 35.77776 20499 ft 364 kts 257°
2026-05-05 12:36 55.77911 35.73430 20903 ft 367 kts 257°
2026-05-05 12:36 55.77330 35.68951 21319 ft 369 kts 257°
2026-05-05 12:37 55.76752 35.64507 21711 ft 371 kts 257°
2026-05-05 12:37 55.76168 35.60030 22107 ft 373 kts 257°
2026-05-05 12:37 55.75601 35.55589 22488 ft 375 kts 259°
2026-05-05 12:37 55.75208 35.51007 22870 ft 377 kts 263°
2026-05-05 12:38 55.74950 35.46365 23236 ft 379 kts 265°
2026-05-05 12:38 55.74756 35.41685 23580 ft 381 kts 266°
2026-05-05 12:38 55.74584 35.36985 23897 ft 383 kts 266°
2026-05-05 12:38 55.74410 35.32261 24215 ft 384 kts 266°
2026-05-05 12:39 55.74224 35.27526 24552 ft 385 kts 265°
2026-05-05 12:39 55.74024 35.22769 24863 ft 387 kts 265°
2026-05-05 12:39 55.73815 35.18002 25185 ft 389 kts 265°
2026-05-05 12:39 55.73597 35.13212 25525 ft 390 kts 265°
2026-05-05 12:40 55.73375 35.08405 25868 ft 392 kts 265°
2026-05-05 12:40 55.73151 35.03576 26213 ft 393 kts 265°
2026-05-05 12:40 55.72930 34.98725 26584 ft 395 kts 265°
2026-05-05 12:40 55.72706 34.93856 26965 ft 397 kts 265°
2026-05-05 12:41 55.72479 34.88971 27359 ft 398 kts 265°
2026-05-05 12:41 55.72250 34.84066 27776 ft 400 kts 265°
2026-05-05 12:41 55.72017 34.79132 28169 ft 402 kts 265°
2026-05-05 12:41 55.71781 34.74171 28588 ft 404 kts 265°
2026-05-05 12:42 55.71542 34.69202 29002 ft 406 kts 265°
2026-05-05 12:42 55.71299 34.64198 29441 ft 408 kts 265°
2026-05-05 12:42 55.70883 34.59208 29853 ft 411 kts 258°
2026-05-05 12:42 55.70102 34.54315 30214 ft 414 kts 253°
2026-05-05 12:43 55.69174 34.49463 30541 ft 417 kts 252°
2026-05-05 12:43 55.68190 34.44615 30883 ft 420 kts 251°
2026-05-05 12:43 55.67175 34.39751 31211 ft 422 kts 251°
2026-05-05 12:43 55.66158 34.34920 31541 ft 425 kts 251°
2026-05-05 12:44 55.65122 34.29999 31871 ft 428 kts 251°
2026-05-05 12:44 55.64084 34.25058 32179 ft 430 kts 251°
2026-05-05 12:44 55.63040 34.20072 32468 ft 433 kts 251°
2026-05-05 12:44 55.61991 34.15056 32754 ft 436 kts 251°
2026-05-05 12:45 55.60937 34.10022 33063 ft 438 kts 251°
2026-05-05 12:45 55.59873 34.04954 33338 ft 440 kts 251°
2026-05-05 12:45 55.58804 33.99870 33621 ft 443 kts 251°
2026-05-05 12:45 55.57726 33.94757 33878 ft 445 kts 251°
2026-05-05 12:46 55.56643 33.89636 34188 ft 445 kts 251°
2026-05-05 12:46 55.55555 33.84508 34508 ft 445 kts 251°
2026-05-05 12:46 55.54464 33.79383 34821 ft 445 kts 251°
2026-05-05 12:46 55.53375 33.74272 35134 ft 446 kts 251°
2026-05-05 12:47 55.52280 33.69149 35445 ft 446 kts 250°
2026-05-05 12:47 55.51271 33.63986 35749 ft 446 kts 255°
2026-05-05 12:47 55.50442 33.58709 36049 ft 446 kts 256°
2026-05-05 12:47 55.49653 33.53426 36332 ft 446 kts 256°
2026-05-05 12:48 55.48880 33.48116 36625 ft 447 kts 256°
2026-05-05 12:48 55.48116 33.42822 36936 ft 447 kts 256°
2026-05-05 12:48 55.47348 33.37505 37222 ft 447 kts 256°
2026-05-05 12:48 55.46576 33.32192 37508 ft 447 kts 255°
2026-05-05 12:49 55.45800 33.26879 37794 ft 448 kts 255°
2026-05-05 12:49 55.45018 33.21569 38063 ft 448 kts 255°
2026-05-05 12:49 55.44233 33.16261 38336 ft 448 kts 255°
2026-05-05 12:49 55.43444 33.10943 38580 ft 449 kts 255°
2026-05-05 12:50 55.42652 33.05629 38767 ft 449 kts 255°
2026-05-05 12:50 55.41857 33.00313 38946 ft 450 kts 255°
2026-05-05 12:50 55.41058 32.94984 39116 ft 451 kts 255°
2026-05-05 12:50 55.40255 32.89651 39298 ft 451 kts 255°
2026-05-05 12:51 55.39451 32.84320 39471 ft 452 kts 255°
2026-05-05 12:51 55.38640 32.78972 39632 ft 452 kts 255°
2026-05-05 12:51 55.37828 32.73626 39792 ft 453 kts 255°
2026-05-05 12:51 55.37009 32.68254 39841 ft 456 kts 255°
2026-05-05 12:52 55.35363 32.57506 39840 ft 455 kts 255°
2026-05-05 12:52 55.33709 32.46780 39848 ft 455 kts 255°
2026-05-05 12:53 55.32047 32.36068 39845 ft 454 kts 254°
2026-05-05 12:53 55.30378 32.25384 39844 ft 454 kts 254°
2026-05-05 12:54 55.27854 32.09358 39848 ft 454 kts 254°
2026-05-05 12:55 55.26161 31.98693 39841 ft 454 kts 254°
2026-05-05 12:55 55.24470 31.88104 39843 ft 454 kts 254°
2026-05-05 12:56 55.22760 31.77467 39838 ft 454 kts 254°
2026-05-05 12:56 55.21040 31.66830 39846 ft 454 kts 254°
2026-05-05 12:57 55.19311 31.56207 39847 ft 454 kts 254°
2026-05-05 12:57 55.17574 31.45598 39847 ft 453 kts 254°
2026-05-05 12:58 55.15828 31.35008 39842 ft 453 kts 254°
2026-05-05 12:58 55.14073 31.24422 39843 ft 453 kts 254°
2026-05-05 12:59 55.12309 31.13847 39841 ft 453 kts 253°
2026-05-05 12:59 55.10391 31.03373 39840 ft 453 kts 248°
2026-05-05 13:00 55.07186 30.93927 39847 ft 454 kts 232°
2026-05-05 13:00 55.05144 30.89722 39847 ft 455 kts 230°
2026-05-05 13:01 54.96565 30.73438 39859 ft 456 kts 229°
2026-05-05 13:01 54.92266 30.65324 39861 ft 456 kts 229°
2026-05-05 13:02 54.87973 30.57196 39855 ft 456 kts 229°
2026-05-05 13:02 54.83684 30.49089 39856 ft 456 kts 229°
2026-05-05 13:03 54.79386 30.40994 39851 ft 456 kts 229°
2026-05-05 13:03 54.75083 30.32919 39853 ft 457 kts 229°
2026-05-05 13:04 54.71492 30.26200 39856 ft 457 kts 229°
2026-05-05 13:04 54.67168 30.18137 39860 ft 457 kts 229°
2026-05-05 13:05 54.62840 30.10094 39858 ft 457 kts 229°
2026-05-05 13:05 54.58501 30.02058 39859 ft 457 kts 229°
2026-05-05 13:06 54.54156 29.94037 39858 ft 458 kts 229°
2026-05-05 13:06 54.49804 29.86029 39860 ft 458 kts 228°
2026-05-05 13:07 54.45450 29.78045 39861 ft 458 kts 228°
2026-05-05 13:07 54.41083 29.70064 39866 ft 458 kts 228°
2026-05-05 13:08 54.36738 29.62148 39865 ft 459 kts 228°
2026-05-05 13:08 54.32368 29.54174 39864 ft 459 kts 228°
2026-05-05 13:09 54.28000 29.46193 39863 ft 459 kts 228°
2026-05-05 13:09 54.23627 29.38227 39863 ft 460 kts 228°
2026-05-05 13:10 54.19242 29.30274 39867 ft 460 kts 228°
2026-05-05 13:10 54.14968 29.22157 39872 ft 459 kts 234°
2026-05-05 13:11 54.11883 29.12715 39873 ft 457 kts 249°
2026-05-05 13:11 54.09671 29.02553 39869 ft 457 kts 251°
2026-05-05 13:12 54.07586 28.92331 39868 ft 457 kts 251°
2026-05-05 13:12 54.05485 28.82108 39868 ft 457 kts 251°
2026-05-05 13:13 54.03361 28.71900 39870 ft 457 kts 251°
2026-05-05 13:13 54.01220 28.61720 39871 ft 457 kts 250°
2026-05-05 13:14 53.99166 28.52009 39869 ft 457 kts 250°
2026-05-05 13:14 53.97005 28.41845 39864 ft 458 kts 250°
2026-05-05 13:15 53.94837 28.31694 39858 ft 458 kts 250°
2026-05-05 13:15 53.92657 28.21535 39859 ft 458 kts 250°
2026-05-05 13:16 53.90485 28.11461 39859 ft 458 kts 250°
2026-05-05 13:16 53.88045 28.01502 39860 ft 458 kts 242°
2026-05-05 13:17 53.84669 27.92344 39854 ft 459 kts 237°
2026-05-05 13:17 53.81106 27.83370 39860 ft 459 kts 237°
2026-05-05 13:18 53.77520 27.74436 39859 ft 459 kts 237°
2026-05-05 13:18 53.73939 27.65493 39869 ft 459 kts 237°
2026-05-05 13:19 53.70360 27.56554 39863 ft 459 kts 237°
2026-05-05 13:19 53.66774 27.47625 39870 ft 460 kts 237°
2026-05-05 13:20 53.63181 27.38708 39869 ft 460 kts 237°
2026-05-05 13:20 53.59580 27.29805 39870 ft 460 kts 237°
2026-05-05 13:21 53.55974 27.20922 39868 ft 460 kts 237°
2026-05-05 13:21 53.52360 27.12053 39867 ft 460 kts 237°
2026-05-05 13:22 53.48739 27.03196 39869 ft 460 kts 237°
2026-05-05 13:22 53.45114 26.94358 39867 ft 460 kts 237°
2026-05-05 13:23 53.41495 26.85517 39864 ft 460 kts 237°
2026-05-05 13:23 53.37880 26.76688 39862 ft 460 kts 237°
2026-05-05 13:24 53.34251 26.67860 39864 ft 460 kts 237°
2026-05-05 13:24 53.30616 26.59056 39862 ft 460 kts 236°
2026-05-05 13:25 53.26975 26.50272 39860 ft 460 kts 236°
2026-05-05 13:25 53.23340 26.41569 39864 ft 460 kts 236°
2026-05-05 13:26 53.19658 26.32838 39862 ft 460 kts 236°
2026-05-05 13:26 53.15970 26.24113 39860 ft 460 kts 236°
2026-05-05 13:27 53.12280 26.15405 39858 ft 460 kts 236°
2026-05-05 13:27 53.08583 26.06704 39857 ft 460 kts 236°
2026-05-05 13:28 53.04879 25.98017 39853 ft 460 kts 236°
2026-05-05 13:28 53.01171 25.89348 39854 ft 460 kts 236°
2026-05-05 13:29 52.97453 25.80690 39855 ft 461 kts 236°
2026-05-05 13:29 52.93729 25.72045 39851 ft 461 kts 236°
2026-05-05 13:30 52.89999 25.63413 39853 ft 461 kts 236°
2026-05-05 13:30 52.86260 25.54790 39856 ft 461 kts 236°
2026-05-05 13:31 52.82517 25.46189 39854 ft 461 kts 235°
2026-05-05 13:31 52.78769 25.37605 39853 ft 461 kts 235°
2026-05-05 13:32 52.75013 25.29033 39850 ft 461 kts 235°
2026-05-05 13:32 52.71252 25.20477 39851 ft 461 kts 235°
2026-05-05 13:33 52.67480 25.11923 39849 ft 461 kts 235°
2026-05-05 13:33 52.63703 25.03388 39847 ft 461 kts 235°
2026-05-05 13:34 52.59922 24.94871 39849 ft 461 kts 235°
2026-05-05 13:34 52.56134 24.86368 39846 ft 461 kts 235°
2026-05-05 13:35 52.52365 24.77916 39848 ft 461 kts 235°
2026-05-05 13:35 52.48543 24.69374 39851 ft 461 kts 235°
2026-05-05 13:36 52.44768 24.60966 39852 ft 461 kts 235°
2026-05-05 13:36 52.40960 24.52511 39853 ft 461 kts 235°
2026-05-05 13:37 52.37148 24.44074 39852 ft 461 kts 234°
2026-05-05 13:37 52.33325 24.35641 39855 ft 461 kts 234°
2026-05-05 13:38 52.29502 24.27235 39860 ft 461 kts 234°
2026-05-05 13:38 52.25666 24.18829 39869 ft 461 kts 234°
2026-05-05 13:39 52.21827 24.10442 39874 ft 461 kts 234°
2026-05-05 13:39 52.17886 24.02178 39881 ft 462 kts 232°
2026-05-05 13:40 52.13757 23.94157 39885 ft 462 kts 231°
2026-05-05 13:40 52.09791 23.85932 39884 ft 461 kts 236°
2026-05-05 13:41 52.06148 23.77351 39882 ft 461 kts 237°
2026-05-05 13:41 52.02555 23.68725 39877 ft 462 kts 237°
2026-05-05 13:42 51.98540 23.60563 39871 ft 463 kts 231°
2026-05-05 13:42 51.94362 23.52625 39865 ft 463 kts 231°
2026-05-05 13:43 51.90147 23.44721 39856 ft 463 kts 231°
2026-05-05 13:43 51.85937 23.36836 39852 ft 463 kts 231°
2026-05-05 13:44 51.81723 23.28945 39850 ft 463 kts 231°
2026-05-05 13:44 51.77536 23.21124 39849 ft 463 kts 231°
2026-05-05 13:45 51.73313 23.13259 39845 ft 464 kts 231°
2026-05-05 13:45 51.69082 23.05407 39847 ft 464 kts 230°
2026-05-05 13:46 51.64847 22.97571 39847 ft 464 kts 230°
2026-05-05 13:46 51.60605 22.89744 39844 ft 464 kts 230°
2026-05-05 13:47 51.56352 22.81922 39843 ft 464 kts 230°
2026-05-05 13:47 51.52099 22.74125 39846 ft 464 kts 230°
2026-05-05 13:48 51.47836 22.66335 39850 ft 464 kts 230°
2026-05-05 13:48 51.43566 22.58554 39851 ft 465 kts 230°
2026-05-05 13:49 51.39290 22.50788 39850 ft 465 kts 230°
2026-05-05 13:49 51.35008 22.43029 39849 ft 465 kts 230°
2026-05-05 13:50 51.30723 22.35294 39850 ft 465 kts 230°
2026-05-05 13:50 51.26430 22.27573 39845 ft 465 kts 230°
2026-05-05 13:51 51.22128 22.19858 39844 ft 465 kts 230°
2026-05-05 13:51 51.17824 22.12161 39840 ft 465 kts 230°
2026-05-05 13:52 51.14239 22.05767 39840 ft 465 kts 230°
2026-05-05 13:52 51.09923 21.98092 39838 ft 466 kts 230°
2026-05-05 13:53 51.05599 21.90423 39838 ft 466 kts 230°
2026-05-05 13:53 51.01271 21.82759 39833 ft 466 kts 230°
2026-05-05 13:54 50.96944 21.75130 39834 ft 466 kts 230°
2026-05-05 13:54 50.92596 21.67492 39832 ft 466 kts 230°
2026-05-05 13:55 50.88248 21.59872 39831 ft 466 kts 229°
2026-05-05 13:55 50.83898 21.52269 39831 ft 466 kts 229°
2026-05-05 13:56 50.79543 21.44680 39833 ft 466 kts 229°
2026-05-05 13:56 50.75183 21.37105 39831 ft 466 kts 229°
2026-05-05 13:57 50.70815 21.29532 39827 ft 466 kts 229°
2026-05-05 13:57 50.66440 21.21996 39831 ft 466 kts 229°
2026-05-05 13:58 50.62088 21.14523 39826 ft 466 kts 229°
2026-05-05 13:58 50.57703 21.07009 39824 ft 466 kts 229°
2026-05-05 13:59 50.51119 20.95765 39820 ft 466 kts 229°
2026-05-05 14:00 50.44531 20.84564 39818 ft 466 kts 229°
2026-05-05 14:00 50.40122 20.77098 39820 ft 466 kts 229°
2026-05-05 14:01 50.35718 20.69660 39814 ft 466 kts 229°
2026-05-05 14:01 50.31316 20.62245 39819 ft 466 kts 229°
2026-05-05 14:02 50.26895 20.54821 39812 ft 465 kts 229°
2026-05-05 14:02 50.22481 20.47432 39803 ft 465 kts 228°
2026-05-05 14:03 50.18062 20.40056 39807 ft 465 kts 228°
2026-05-05 14:03 50.13634 20.32684 39812 ft 465 kts 228°
2026-05-05 14:04 50.09231 20.25377 39822 ft 465 kts 228°
2026-05-05 14:04 50.04798 20.18042 39827 ft 465 kts 228°
2026-05-05 14:05 50.00363 20.10723 39833 ft 465 kts 228°
2026-05-05 14:05 49.95922 20.03418 39848 ft 465 kts 228°
2026-05-05 14:06 49.91480 19.96130 39849 ft 465 kts 228°
2026-05-05 14:06 49.87154 19.89052 39829 ft 465 kts 228°
2026-05-05 14:07 49.82707 19.81796 39845 ft 464 kts 228°
2026-05-05 14:07 49.78253 19.74551 39832 ft 464 kts 228°
2026-05-05 14:08 49.73808 19.67344 39834 ft 463 kts 228°
2026-05-05 14:08 49.69361 19.60151 39837 ft 462 kts 228°
2026-05-05 14:09 49.64916 19.52980 39836 ft 461 kts 228°
2026-05-05 14:09 49.60185 19.46312 39838 ft 464 kts 217°
2026-05-05 14:10 49.54696 19.41050 39847 ft 465 kts 213°
2026-05-05 14:10 49.49082 19.36087 39843 ft 465 kts 212°
2026-05-05 14:11 49.43460 19.31162 39851 ft 465 kts 212°
2026-05-05 14:11 49.40687 19.28724 39683 ft 465 kts 212°
2026-05-05 14:11 49.37884 19.26251 39451 ft 464 kts 212°
2026-05-05 14:12 49.35087 19.23781 39216 ft 464 kts 212°
2026-05-05 14:12 49.32292 19.21314 38990 ft 464 kts 212°
2026-05-05 14:12 49.29498 19.18851 38570 ft 461 kts 212°
2026-05-05 14:12 49.26722 19.16408 37883 ft 461 kts 212°
2026-05-05 14:13 49.23942 19.13963 37213 ft 460 kts 212°
2026-05-05 14:13 49.21170 19.11527 36564 ft 460 kts 212°
2026-05-05 14:13 49.18394 19.09094 35898 ft 460 kts 212°
2026-05-05 14:13 49.15613 19.06661 35209 ft 461 kts 211°
2026-05-05 14:14 49.12828 19.04225 34487 ft 462 kts 211°
2026-05-05 14:14 49.10026 19.01777 33649 ft 465 kts 211°
2026-05-05 14:14 49.07222 18.99329 32790 ft 466 kts 211°
2026-05-05 14:14 49.04401 18.96871 31954 ft 466 kts 211°
2026-05-05 14:15 49.01591 18.94428 31312 ft 462 kts 211°
2026-05-05 14:15 48.98817 18.92021 30748 ft 457 kts 211°
2026-05-05 14:15 48.96068 18.89639 30200 ft 452 kts 210°
2026-05-05 14:15 48.93345 18.87281 29577 ft 448 kts 210°
2026-05-05 14:16 48.90647 18.84949 29004 ft 443 kts 210°
2026-05-05 14:16 48.88020 18.82558 28454 ft 437 kts 215°
2026-05-05 14:16 48.85642 18.79755 27923 ft 431 kts 220°
2026-05-05 14:16 48.83357 18.76821 27371 ft 426 kts 221°
2026-05-05 14:17 48.81137 18.73871 26851 ft 422 kts 222°
2026-05-05 14:17 48.78951 18.70923 26308 ft 419 kts 222°
2026-05-05 14:17 48.76788 18.67994 25790 ft 416 kts 222°
2026-05-05 14:17 48.74669 18.65129 25265 ft 413 kts 222°
2026-05-05 14:18 48.72529 18.62247 24753 ft 410 kts 222°
2026-05-05 14:18 48.70399 18.59388 24216 ft 408 kts 222°
2026-05-05 14:18 48.68286 18.56562 23688 ft 405 kts 222°
2026-05-05 14:18 48.66170 18.53748 23097 ft 403 kts 222°
2026-05-05 14:19 48.64066 18.50968 22532 ft 400 kts 222°
2026-05-05 14:19 48.61982 18.48215 21992 ft 396 kts 222°
2026-05-05 14:19 48.59921 18.45494 21449 ft 392 kts 222°
2026-05-05 14:19 48.57873 18.42794 20901 ft 389 kts 222°
2026-05-05 14:20 48.55848 18.40124 20359 ft 386 kts 221°
2026-05-05 14:20 48.53829 18.37466 19816 ft 384 kts 222°
2026-05-05 14:20 48.51822 18.34822 19269 ft 381 kts 221°
2026-05-05 14:20 48.49831 18.32205 18722 ft 378 kts 222°
2026-05-05 14:21 48.47854 18.29608 18187 ft 376 kts 221°
2026-05-05 14:21 48.45888 18.27028 17574 ft 373 kts 221°
2026-05-05 14:21 48.43948 18.24483 17033 ft 368 kts 221°
2026-05-05 14:21 48.42026 18.21965 16481 ft 364 kts 221°
2026-05-05 14:22 48.40126 18.19480 15961 ft 360 kts 220°
2026-05-05 14:22 48.38248 18.17027 15426 ft 356 kts 220°
2026-05-05 14:22 48.36383 18.14592 14910 ft 353 kts 220°
2026-05-05 14:22 48.34538 18.12184 14380 ft 350 kts 219°
2026-05-05 14:23 48.32703 18.09795 13863 ft 347 kts 219°
2026-05-05 14:23 48.30913 18.07385 13301 ft 345 kts 223°
2026-05-05 14:23 48.29477 18.04535 12878 ft 343 kts 239°
2026-05-05 14:23 48.28696 18.01155 12686 ft 348 kts 255°
2026-05-05 14:24 48.28319 17.97533 12445 ft 353 kts 259°
2026-05-05 14:24 48.28009 17.93877 12175 ft 353 kts 259°
2026-05-05 14:24 48.27696 17.90236 11906 ft 351 kts 259°
2026-05-05 14:24 48.27382 17.86614 11627 ft 349 kts 259°
2026-05-05 14:25 48.27063 17.83027 11427 ft 341 kts 259°
2026-05-05 14:25 48.26583 17.79635 11203 ft 324 kts 247°
2026-05-05 14:25 48.25513 17.76831 10993 ft 307 kts 227°
2026-05-05 14:25 48.24046 17.74548 10792 ft 294 kts 222°
2026-05-05 14:26 48.22629 17.72515 10599 ft 284 kts 222°
2026-05-05 14:26 48.21222 17.70492 10362 ft 276 kts 222°
2026-05-05 14:26 48.19856 17.68514 10115 ft 270 kts 222°
2026-05-05 14:26 48.18517 17.66574 10021 ft 268 kts 222°
2026-05-05 14:27 48.17175 17.64627 9994 ft 268 kts 223°
2026-05-05 14:27 48.15847 17.62690 9796 ft 265 kts 223°
2026-05-05 14:27 48.14529 17.60775 9525 ft 260 kts 223°
2026-05-05 14:27 48.13264 17.58935 9319 ft 245 kts 223°
2026-05-05 14:28 48.12070 17.57201 8931 ft 232 kts 222°
2026-05-05 14:28 48.10947 17.55507 8669 ft 230 kts 227°
2026-05-05 14:28 48.10150 17.53435 8456 ft 234 kts 249°
2026-05-05 14:28 48.10060 17.50981 8267 ft 244 kts 276°
2026-05-05 14:29 48.10793 17.48665 8063 ft 255 kts 303°
2026-05-05 14:29 48.12009 17.46703 7871 ft 258 kts 309°
2026-05-05 14:29 48.13289 17.44812 7655 ft 258 kts 309°
2026-05-05 14:29 48.14559 17.42918 7443 ft 257 kts 309°
2026-05-05 14:30 48.15981 17.41269 7252 ft 265 kts 329°
2026-05-05 14:30 48.17801 17.40778 7046 ft 272 kts
2026-05-05 14:30 48.19509 17.41817 6860 ft 271 kts 40°
2026-05-05 14:30 48.20867 17.43743 6644 ft 269 kts 49°
2026-05-05 14:31 48.22158 17.45780 6439 ft 269 kts 49°
2026-05-05 14:31 48.23462 17.47781 6236 ft 268 kts 48°
2026-05-05 14:31 48.24782 17.49758 6020 ft 268 kts 48°
2026-05-05 14:31 48.26104 17.51715 5823 ft 267 kts 47°
2026-05-05 14:32 48.27432 17.53660 5599 ft 266 kts 47°
2026-05-05 14:32 48.28757 17.55599 5405 ft 266 kts 47°
2026-05-05 14:32 48.30174 17.57365 5192 ft 268 kts 31°
2026-05-05 14:32 48.31965 17.58042 4980 ft 267 kts 355°
2026-05-05 14:33 48.33661 17.57172 4796 ft 255 kts 318°
2026-05-05 14:33 48.34932 17.55360 4595 ft 250 kts 306°
2026-05-05 14:33 48.35981 17.53313 4396 ft 244 kts 291°
2026-05-05 14:33 48.36364 17.50940 4232 ft 229 kts 260°
2026-05-05 14:34 48.35917 17.48753 4057 ft 215 kts 232°
2026-05-05 14:34 48.34949 17.47080 3896 ft 211 kts 220°
2026-05-05 14:34 48.33875 17.45563 3735 ft 211 kts 219°
2026-05-05 14:34 48.32833 17.44087 3601 ft 202 kts 219°
2026-05-05 14:35 48.31833 17.42680 3490 ft 191 kts 219°
2026-05-05 14:35 48.30893 17.41333 3409 ft 182 kts 220°
2026-05-05 14:35 48.30003 17.40033 3339 ft 176 kts 219°
2026-05-05 14:35 48.29122 17.38756 3273 ft 176 kts 219°
2026-05-05 14:36 48.28263 17.37517 3192 ft 165 kts 219°
2026-05-05 14:36 48.27446 17.36354 3009 ft 162 kts 220°
2026-05-05 14:36 48.26637 17.35182 2753 ft 160 kts 220°
2026-05-05 14:36 48.25850 17.34042 2542 ft 155 kts 220°
2026-05-05 14:37 48.25091 17.32943 2361 ft 148 kts 219°
2026-05-05 14:37 48.24363 17.31887 2160 ft 142 kts 217°
2026-05-05 14:37 48.23671 17.30891 1966 ft 132 kts 218°
2026-05-05 14:37 48.23034 17.29970 1798 ft 122 kts 218°
2026-05-05 14:38 48.22431 17.29099 1666 ft 120 kts 219°
2026-05-05 14:38 48.21832 17.28232 1496 ft 120 kts 218°
2026-05-05 14:38 48.21227 17.27359 1341 ft 121 kts 218°
2026-05-05 14:38 48.20635 17.26504 1185 ft 118 kts 219°
2026-05-05 14:39 48.20043 17.25645 1033 ft 121 kts 215°
2026-05-05 14:39 48.19433 17.24758 849 ft 123 kts 216°
2026-05-05 14:39 48.18836 17.23855 718 ft 120 kts 215°
2026-05-05 14:39 48.18230 17.22998 563 ft 120 kts 216°
2026-05-05 14:40 48.17618 17.22149 425 ft 114 kts 220°
2026-05-05 14:40 48.17135 17.21462 424 ft 80 kts 224°
2026-05-05 14:40 48.16809 17.20992 422 ft 50 kts 224°
2026-05-05 14:40 48.16635 17.20741 424 ft 20 kts 223°
2026-05-05 14:41 48.16562 17.20625 426 ft 5 kts 258°
2026-05-05 14:41 48.16577 17.20580 427 ft 9 kts 306°
2026-05-05 14:41 48.16637 17.20476 424 ft 10 kts 313°
2026-05-05 14:41 48.16639 17.20473 424 ft 0 kts 313°
2026-05-05 14:44 48.16638 17.20473 424 ft 0 kts 313°
2026-05-05 14:44 48.16638 17.20474 424 ft 0 kts 313°
2026-05-05 14:45 48.16648 17.20458 426 ft 5 kts 313°
2026-05-05 14:45 48.16691 17.20391 431 ft 13 kts 315°
2026-05-05 14:45 48.16768 17.20277 423 ft 17 kts 316°
2026-05-05 14:45 48.16830 17.20186 423 ft 10 kts 315°
2026-05-05 14:46 48.16858 17.20161 423 ft 2 kts 347°
2026-05-05 14:46 48.16878 17.20145 423 ft 4 kts 326°
2026-05-05 14:46 48.16900 17.20112 426 ft 5 kts 315°
2026-05-05 14:46 48.16911 17.20096 425 ft 0 kts 314°
2026-05-05 14:57 48.16911 17.20097 438 ft 0 kts 314°
2026-05-05 15:01 48.16910 17.20097 438 ft 0 kts 314°
2026-05-05 15:08 48.16910 17.20098 414 ft 0 kts 314°